Showing default

EXPLORER 30, 1738

Orbit data source: Space-Track

EXPLORER 30, 1738 is a payload satellite owned by NRL (US) in LEO that was launched on Fri, 19 Nov 1965 UTC via an SCOUT X-4 launch vehicle from the Wallops Island (WLPIS). Payload-class satellites include a variety of spacecraft equipped with specific instruments for various scientific and technological missions. These include communications satellites like Starlink; space stations such as the ISS; scientific satellites like the Hubble; Earth observation satellites from companies like Planet Labs, Umbra, and HawkEye 360; GPS; miniature CubeSats for education and research; and military/defense satellites.

Loading next visibility...
Identifier
1738, 1965-093A
Orbit
LEO
Country
Flag of USUS
Related business
Manufacturer
NRL
Mission
Spacecraft
Bus & Motor
NRL 24", Unknown motor
Mass
57 kg wet, 57 kg dry
Launch date (UTC)
1965-11-19 (60 years ago)
Launch vehicle
SCOUT X-4
Launch site
Wallops Island (WLPIS)
Object type
Payload
Rocket body
Debris
Shape & HBR
Unknown
Radar Cross Section
Medium (>0.1 m² and <1 m²)

Expand to show TLE details & history
Last TLE update: 13 hours ago

TLE from 13 hours ago
0 EXPLORER 30
1  1738U 65093A   25308.66119376  .00000079  00000-0  65504-4 0  9999
2  1738  59.7075 288.6739 0128719 185.9711 173.9800 14.41689493124012
Epoch: 2025-11-04T15:52Z
TLE epoch observation values (Epoch: 2025-11-04T15:52:07.140Z)
Latitude
-0.00004°
Longitude
6.49911°
Altitude
845.737 km
Speed
7.383 km/s
True Right ascension
19h 14m 41s
True Declination
0° 00' 00"
Sunlit
Object was in daylight at epoch
Visualization orbit readout
Latitude
Unknown
Longitude
Unknown
Altitude
Unknown
Speed
Unknown
Apparent Right ascension
Unknown
Apparent Declination
Unknown
Sunlit
N/A
Visualization observer readout
Local Sidereal Time
01:05:00
Azimuth
Unknown
Elevation
Unknown
Doppler factor
Unknown
Orbital elements
Apogee altitude
843.976 km
Perigee altitude
660.414 km
Semi-major axis
7,130.332 km
Eccentricity
0.01287
Inclination
59.7075°
RAAN
288.6739°
Arg. of periapsis
185.9711°
True anomaly
174.13225°
Mean anomaly
173.98°
Eccentric anomaly
174.05637°
Mean motion
3.60478 °/min
Orbital period
99.87 mins
BSTAR
0.000065504
Loading maneuver chart data...
Computing Atmospheric mass density...
Loading historical data...
Loading historical data...
Loading historical data...
Loading historical data...
Loading historical data...
Loading historical data...
Loading historical data...
Other satellites on launch #93 in the year 1965 (1965-11-19 UTC)

Documentation

Showing up to 5 results
|